Regional Weather Roundup
Issued by NWS Albany, NY

Home | Current Version | Previous Version | Graphics & Text | Print | Product List | Glossary Off
Versions: 1 2 3 4 5 6 7 8 9 10 11 12 13 14 15 16 17 18 19 20 21 22 23 24 25 26 27 28 29 30 31 32 33 34 35 36 37 38 39 40 41 42 43 44 45 46 47 48 49 50

448
ASUS41 KALY 250110
RWRALY

NEW YORK STATE HOURLY WEATHER ROUNDUP
NATIONAL WEATHER SERVICE ALBANY NY
900 PM EDT SAT JUN 24 2017

NOTE: "FAIR" INDICATES FEW OR NO CLOUDS BELOW 12,000 FEET WITH NO
SIGNIFICANT WEATHER AND/OR NO OBSTRUCTIONS TO VISIBILITY.

NYZ032-033-038>043-046>054-057>066-NYZ062>081-082-084-250200-
EAST


CITY           SKY/WX    TMP DP  RH WIND       PRES   REMARKS
ALBANY         CLOUDY    69  59  70 W9        29.83R
GLENS FALLS    CLEAR     69  50  50 SW3       29.80R
POUGHKEEPSIE   CLEAR     72  59  63 CALM      29.80R
NEWBURGH       PTCLDY    77  59  53 VRB5      29.83R
MONTGOMERY     CLEAR     71  61  70 S3        29.82R
WHITE PLAINS   CLEAR     72  57  60 CALM      29.84R
ISLIP          PTCLDY    77  57  50 SW6       29.84R
NEW YORK CITY  PTCLDY    84  57  39 SW12      29.82S
CENTRAL PARK   PTCLDY    81  56  42 VRB5      29.86R
$$

NYZ005>009-017-018-044>046-055-056-250200-
CENTRAL


CITY           SKY/WX    TMP DP  RH WIND       PRES   REMARKS
FULTON         CLOUDY    65  53  65 SW8       29.86R
SYRACUSE       MOCLDY    68  53  58 W13       29.86R
ROME           CLEAR     67  53  61 W5        29.86R
ELMIRA         NOT AVBL
BINGHAMTON     NOT AVBL
MONTICELLO     CLOUDY    64  61  88 NW12G25   29.91R
$$

NYZ026>034-041>043-087-250200-
NORTH


CITY           SKY/WX    TMP DP  RH WIND       PRES   REMARKS
WATERTOWN      CLEAR     66  60  81 SW12G21   29.83R
FORT DRUM      NOT AVBL
OGDENSBURG     FAIR      65  57  75 N6        29.81R
MASSENA        CLOUDY    62  58  86 NW6       29.81R THUNDER
SARANAC LAKE   CLEAR     63  51  65 SW7       29.81R
PLATTSBURGH    CLEAR     72  51  47 VRB3      29.75R
$$

NYZ001>004-010>016-019>021-085-250200-
WEST


CITY           SKY/WX    TMP DP  RH WIND       PRES   REMARKS
NIAGARA FALLS  CLEAR     65  54  67 SW8       29.89R
BUFFALO        PTCLDY    66  51  58 SW8       29.89S
DUNKIRK        PTCLDY    61  59  93 S6        29.91F
JAMESTOWN      CLEAR     64  48  55 NW5       29.96R
WELLSVILLE     CLEAR     63  49  60 W8        29.97R
ROCHESTER      MOCLDY    65  61  87 W8        29.89R
PENN YAN       CLEAR     66  51  58 W5        29.91R
$$

             KEY
       WCI = WIND CHILL INDEX
       VSB = VISIBILITY
       HX  = HEAT INDEX
$$




USA.gov is the U.S. government's official web portal to all federal, state and local government web resources and services.